Location: Asheville, NC
(35.6000°N, 82.5500°W)
Time: 05:36:06
(UTC-05:00)

Vanguard 2 - Pass Details

Date: 10 February 2018
Orbit: 553 x 2939 km, 32.9° (Epoch: 17 February)

Event Time Altitude Azimuth Distance (km) Brightness Sun altitude
Rises 03:26:24 0° 264° (W) 2,954 - -48.0°
Reaches altitude 10° 03:29:07 10° 244° (WSW) 2,237 - -47.5°
Maximum altitude 03:32:37 18° 201° (SSW) 2,022 - -46.8°
Drops below altitude 10° 03:37:09 10° 160° (SSE) 3,001 - -45.9°
Exits shadow 03:39:24 - 151° (SSE) 3,710 11.1 -45.5°
Sets 03:41:38 0° 144° (SE) 4,447 11.6 -45.1°
